Location: Unspecified
(0.0000°N, 0.0000°E)
Time: 10:01:50
(UTC+00:00)

AO-7 - Visible Passes

Search period start: 18 January 2018 00:00
Search period end: 28 January 2018 00:00
Orbit: 1440 x 1458 km, 101.7° (Epoch: 17 January)

Date Brightness Start Highest point End Pass type
(mag) Time Alt. Az. Time Alt. Az. Time Alt. Az.
18 Jan ? 02:16:09 25° SE 02:16:09 25° SE 02:20:51 10° SSE visible
18 Jan ? 04:11:04 24° SW 04:11:04 24° SW 04:14:16 10° SW visible
19 Jan ? 03:10:12 41° S 03:10:12 41° S 03:15:12 10° S visible
20 Jan ? 02:09:20 21° SE 02:09:20 21° SE 02:13:28 10° SSE visible
20 Jan ? 04:04:15 25° SW 04:04:15 25° SW 04:07:31 10° SW visible
21 Jan ? 03:03:23 38° S 03:03:23 38° S 03:08:10 10° S visible
22 Jan ? 02:02:31 18° SE 02:02:31 18° SE 02:06:00 10° SSE visible
22 Jan ? 03:57:26 26° SW 03:57:26 26° SW 04:00:44 10° SSW visible
23 Jan ? 02:56:33 35° SSE 02:56:33 35° SSE 03:01:05 10° S visible
24 Jan ? 01:55:41 16° SE 01:55:41 16° SE 01:58:25 10° SE visible
24 Jan ? 03:50:37 27° SW 03:50:37 27° SW 03:53:54 10° SSW visible
25 Jan ? 02:49:45 31° SSE 02:49:45 31° SSE 02:53:59 10° S visible
26 Jan ? 01:48:52 13° SE 01:48:52 13° SE 01:50:39 10° SE visible
26 Jan ? 03:43:48 27° SSW 03:43:48 27° SSW 03:47:03 10° SSW visible
27 Jan ? 02:42:55 28° SSE 02:42:55 28° SSE 02:46:49 10° S visible
27 Jan ? 04:37:51 10° SW 04:37:51 10° SW 04:37:57 10° SW visible
